Weather History for Houlton, ME

Change the Weather History Date:

Thursday, June 20, 2013

  Actual Average Record
Temperature  
Mean Temperature 57 °F 62 °F  
Max Temperature 75 °F 74 °F 90 °F (2012)
Min Temperature 38 °F 49 °F 33 °F (1986)
Degree Days  
Heating Degree Days 8 5  
Month to date heating degree days 154 140  
Since 1 June heating degree days 154 140  
Since 1 July heating degree days 8504 9147  
Cooling Degree Days 0 1  
Month to date cooling degree days 10 16  
Year to date cooling degree days 14 20  
Since 1 June cooling degree days 10 16  
Growing Degree Days 5 (Base 50)    
Moisture  
Dew Point 45 °F    
Average Humidity 68    
Maximum Humidity 100    
Minimum Humidity 35    
Precipitation  
Precipitation 0.00 in 0.13 in 1.32 in (2009)
Month to date precipitation 4.25 2.35  
Year to date precipitation 15.48 16.98  
Sea Level Pressure  
Sea Level Pressure 30.16 in    
Wind  
Wind Speed 5 mph (SW)    
Max Wind Speed 15 mph    
Max Gust Speed 21 mph    
Visibility 10 miles    
Events      
T = Trace of Precipitation, MM = Missing Value Source: NWS Daily Summary

Daily Weather History Graph

Daily Weather History Graph

Search for Another Location

Airport:

Trip Planner

Search our weather history database for the weather conditions in past years. The results will help you decide how hot, cold, wet, or windy it might be!

Date:

Astronomy

Jun. 20, 2013 Rise Set
Actual Time 4:39 AM EDT 8:25 PM EDT
Civil Twilight 4:00 AM EDT 9:04 PM EDT
Nautical Twilight 3:08 AM EDT 9:57 PM EDT
Astronomical Twilight 1:54 AM EDT 11:10 PM EDT
Moon 5:17 PM EDT (6/20) 2:11 AM EDT (6/20)
Length of Visible Light 17h 03m
Length of Day
15h 46m
Waxing Gibbous, 89% of the Moon is Illuminated
Jun 20
Waxing Gibbous
Jun 23
Full
Jun 30
Last Quarter
Jul 8
New
Jul 15
First Quarter

Hourly Weather History & Observations

Time (EDT) Temp. Dew Point Humidity Pressure Visibility Wind Dir Wind Speed Gust Speed Precip Events Conditions
12:53 AM 42.1 °F 41.0 °F 96% 30.12 in 10.0 mi Calm Calm - N/A   Clear
1:53 AM 41.0 °F 39.9 °F 96% 30.13 in 10.0 mi Calm Calm - N/A   Clear
2:53 AM 41.0 °F 39.9 °F 96% 30.13 in 10.0 mi Calm Calm - N/A   Clear
3:53 AM 39.0 °F 37.9 °F 96% 30.14 in 10.0 mi Calm Calm - N/A   Clear
4:53 AM 37.9 °F 37.0 °F 97% 30.16 in 10.0 mi Calm Calm - N/A   Clear
5:53 AM 43.0 °F 42.1 °F 97% 30.18 in 10.0 mi Calm Calm - N/A   Clear
6:53 AM 54.0 °F 48.0 °F 80% 30.19 in 10.0 mi Calm Calm - N/A   Clear
7:53 AM 60.1 °F 46.9 °F 62% 30.20 in 10.0 mi Variable 4.6 mph - N/A   Clear
8:53 AM 64.0 °F 48.9 °F 58% 30.21 in 10.0 mi SSW 4.6 mph - N/A   Clear
9:53 AM 66.9 °F 51.1 °F 57% 30.20 in 10.0 mi West 4.6 mph - N/A   Clear
10:53 AM 71.1 °F 45.0 °F 39% 30.19 in 10.0 mi SW 10.4 mph - N/A   Clear
11:53 AM 70.0 °F 43.0 °F 38% 30.19 in 10.0 mi WSW 5.8 mph - N/A   Scattered Clouds
12:53 PM 72.0 °F 45.0 °F 38% 30.18 in 10.0 mi West 10.4 mph - N/A   Mostly Cloudy
1:53 PM 72.0 °F 42.1 °F 34% 30.18 in 10.0 mi WSW 10.4 mph - N/A   Mostly Cloudy
2:53 PM 73.9 °F 44.1 °F 34% 30.17 in 10.0 mi West 9.2 mph 16.1 mph N/A   Mostly Cloudy
3:53 PM 73.9 °F 44.1 °F 34% 30.15 in 10.0 mi WSW 12.7 mph 19.6 mph N/A   Clear
4:53 PM 72.0 °F 46.0 °F 40% 30.14 in 10.0 mi SSW 6.9 mph - N/A   Partly Cloudy
5:53 PM 72.0 °F 44.1 °F 37% 30.14 in 10.0 mi SW 8.1 mph - N/A   Clear
6:53 PM 71.1 °F 44.1 °F 38% 30.13 in 10.0 mi SSW 5.8 mph - N/A   Clear
7:53 PM 66.0 °F 48.0 °F 52% 30.14 in 10.0 mi South 3.5 mph - N/A   Clear
8:53 PM 55.0 °F 50.0 °F 83% 30.15 in 10.0 mi South 3.5 mph - N/A   Clear
9:53 PM 52.0 °F 48.0 °F 86% 30.16 in 10.0 mi South 4.6 mph - N/A   Partly Cloudy
10:53 PM 61.0 °F 46.9 °F 60% 30.16 in 10.0 mi SSW 4.6 mph - N/A   Clear
11:53 PM 55.9 °F 46.9 °F 72% 30.17 in 10.0 mi WSW 3.5 mph - N/A   Clear